Weather History for Cagliari, Italy

Change the Weather History Date:

Wednesday, November 6, 2013

  Actual Average Record
Temperature  
Mean Temperature 72 °F -  
Max Temperature 75 °F 64 °F 75 °F (2013)
Min Temperature 66 °F 48 °F 42 °F (2002)
Cooling Degree Days 6    
Growing Degree Days 22 (Base 50)    
Moisture  
Dew Point 59 °F    
Average Humidity 69    
Maximum Humidity 83    
Minimum Humidity 53    
Precipitation  
Precipitation 0.00 in 0.07 in - ()
Sea Level Pressure  
Sea Level Pressure 29.84 in    
Wind  
Wind Speed 21 mph ()    
Max Wind Speed 33 mph    
Max Gust Speed 51 mph    
Visibility 6.1 miles    
Events      
Averages and records for this station are not official NWS values.
T = Trace of Precipitation, MM = Missing Value Source: Averaged Metar Reports

Daily Weather History Graph

Daily Weather History Graph

Search for Another Location

Airport:

Trip Planner

Search our weather history database for the weather conditions in past years. The results will help you decide how hot, cold, wet, or windy it might be!

Date:

Astronomy

Nov. 06, 2013 Rise Set
Actual Time 6:57 AM CET 5:17 PM CET
Civil Twilight 6:28 AM CET 5:45 PM CET
Nautical Twilight 5:57 AM CET 6:17 PM CET
Astronomical Twilight 5:25 AM CET 6:48 PM CET
Moon 9:55 AM CET (11/6) 8:04 PM CET (11/6)
Length of Visible Light 11h 16m
Length of Day
10h 20m
Waxing Crescent, 11% of the Moon is Illuminated
Nov 6
Waxing Crescent
Nov 10
First Quarter
Nov 17
Full
Nov 25
Last Quarter
Dec 3
New

Hourly Weather History & Observations

Time (CET) Temp. Dew Point Humidity Pressure Visibility Wind Dir Wind Speed Gust Speed Precip Events Conditions
12:20 AM 68.0 °F 57.2 °F 68% 29.68 in 6.2 mi NW 25.3 mph 40.3 mph N/A   Mostly Cloudy
12:50 AM 69.8 °F 59.0 °F 68% 29.71 in 6.2 mi NW 19.6 mph - N/A   Mostly Cloudy
1:20 AM 69.8 °F 59.0 °F 68% 29.71 in 6.2 mi NW 21.9 mph 41.4 mph N/A   Scattered Clouds
1:50 AM 69.8 °F 59.0 °F 68% 29.71 in 6.2 mi NW 18.4 mph 34.5 mph N/A   Scattered Clouds
2:20 AM 69.8 °F 57.2 °F 64% 29.71 in 6.2 mi NW 21.9 mph 44.9 mph N/A   Partly Cloudy
2:50 AM 69.8 °F 59.0 °F 68% 29.74 in 6.2 mi NW 18.4 mph 36.8 mph N/A   Partly Cloudy
3:20 AM 68.0 °F 57.2 °F 68% 29.71 in 6.2 mi NW 19.6 mph 33.4 mph N/A   Partly Cloudy
3:50 AM 68.0 °F 57.2 °F 68% 29.71 in 6.2 mi NW 17.3 mph 29.9 mph N/A   Partly Cloudy
4:20 AM 68.0 °F 59.0 °F 73% 29.74 in 5.6 mi NW 23.0 mph 29.9 mph N/A   Scattered Clouds
4:50 AM 68.0 °F 59.0 °F 73% 29.74 in 5.6 mi NW 18.4 mph - N/A   Partly Cloudy
5:20 AM 68.0 °F 59.0 °F 73% 29.74 in 5.6 mi NW 19.6 mph 34.5 mph N/A   Scattered Clouds
5:50 AM 68.0 °F 59.0 °F 73% 29.74 in 5.6 mi NW 16.1 mph 29.9 mph N/A   Scattered Clouds
6:20 AM 68.0 °F 59.0 °F 73% 29.74 in 5.6 mi NW 24.2 mph 38.0 mph N/A   Partly Cloudy
6:50 AM 68.0 °F 59.0 °F 73% 29.71 in 6.2 mi NW 27.6 mph 42.6 mph N/A   Partly Cloudy
7:20 AM 68.0 °F 59.0 °F 73% 29.74 in 6.2 mi NW 31.1 mph 47.2 mph N/A   Partly Cloudy
7:50 AM 68.0 °F 59.0 °F 73% 29.74 in 6.2 mi NW 31.1 mph 47.2 mph N/A   Partly Cloudy
8:20 AM 68.0 °F 59.0 °F 73% 29.74 in 6.2 mi NW 33.4 mph 50.6 mph N/A   Partly Cloudy
8:50 AM 68.0 °F 59.0 °F 73% 29.74 in 6.2 mi NW 33.4 mph 50.6 mph N/A   Partly Cloudy
9:20 AM 69.8 °F 59.0 °F 68% 29.80 in 6.2 mi NNW 25.3 mph 41.4 mph N/A   Partly Cloudy
9:50 AM 69.8 °F 59.0 °F 68% 29.83 in 6.2 mi NNW 27.6 mph 50.6 mph N/A   Scattered Clouds
10:20 AM 69.8 °F 57.2 °F 64% 29.83 in 6.2 mi NW 29.9 mph 47.2 mph N/A   Scattered Clouds
10:50 AM 71.6 °F 57.2 °F 60% 29.86 in 6.2 mi NW 28.8 mph 46.0 mph N/A   Partly Cloudy
11:20 AM 71.6 °F 57.2 °F 60% 29.86 in 6.2 mi NW 29.9 mph 47.2 mph N/A   Partly Cloudy
11:50 AM 73.4 °F 57.2 °F 57% 29.86 in 6.2 mi NW 28.8 mph 41.4 mph N/A   Partly Cloudy
12:20 PM 73.4 °F 57.2 °F 57% 29.86 in 6.2 mi NW 31.1 mph 46.0 mph N/A   Partly Cloudy
12:50 PM 73.4 °F 57.2 °F 57% 29.86 in 6.2 mi NW 28.8 mph 41.4 mph N/A   Partly Cloudy
1:20 PM 73.4 °F 57.2 °F 57% 29.86 in 6.2 mi NW 31.1 mph - N/A   Partly Cloudy
1:50 PM 75.2 °F 57.2 °F 53% 29.86 in - NW 25.3 mph 38.0 mph N/A   Clear
2:20 PM 73.4 °F 59.0 °F 61% 29.86 in - NW 25.3 mph 39.1 mph N/A   Clear
2:50 PM 73.4 °F 59.0 °F 61% 29.86 in - NW 27.6 mph 40.3 mph N/A   Clear
3:20 PM 73.4 °F 59.0 °F 61% 29.86 in 6.2 mi NW 31.1 mph 43.7 mph N/A   Partly Cloudy
3:50 PM 71.6 °F 59.0 °F 64% 29.86 in 6.2 mi NW 28.8 mph 41.4 mph N/A   Partly Cloudy
4:20 PM 71.6 °F 59.0 °F 64% 29.89 in 6.2 mi NW 25.3 mph 42.6 mph N/A   Partly Cloudy
4:50 PM 69.8 °F 60.8 °F 73% 29.89 in 6.2 mi NW 21.9 mph - N/A   Partly Cloudy
5:20 PM 69.8 °F 59.0 °F 68% 29.89 in 6.2 mi NW 20.7 mph 33.4 mph N/A   Partly Cloudy
5:50 PM 69.8 °F 59.0 °F 68% 29.89 in 6.2 mi NW 23.0 mph - N/A   Partly Cloudy
6:20 PM 69.8 °F 59.0 °F 68% 29.92 in 6.2 mi NNW 16.1 mph - N/A   Partly Cloudy
6:50 PM 68.0 °F 60.8 °F 78% 29.92 in 6.2 mi NW 18.4 mph - N/A   Partly Cloudy
7:20 PM 68.0 °F 60.8 °F 78% 29.95 in - NNW 11.5 mph - N/A   Clear
7:50 PM 69.8 °F 59.0 °F 68% 29.95 in - NW 21.9 mph - N/A   Clear
8:20 PM 69.8 °F 59.0 °F 68% 29.95 in - WNW 20.7 mph 33.4 mph N/A   Clear
8:50 PM 69.8 °F 60.8 °F 73% 29.98 in - NW 18.4 mph - N/A   Clear
9:20 PM 68.0 °F 60.8 °F 78% 29.98 in - NW 17.3 mph - N/A   Clear
9:50 PM 68.0 °F 60.8 °F 78% 29.98 in - NW 17.3 mph - N/A   Clear
10:20 PM 68.0 °F 62.6 °F 83% 29.98 in - NW 15.0 mph - N/A   Clear
10:50 PM 68.0 °F 62.6 °F 83% 29.98 in - NW 18.4 mph - N/A   Clear
11:20 PM 68.0 °F 60.8 °F 78% 29.98 in - NW 16.1 mph - N/A   Clear
11:50 PM 66.2 °F 60.8 °F 83% 30.01 in - NW 15.0 mph - N/A   Clear